Regional Weather Roundup
Issued by NWS

Home | Current Version | Previous Version | Graphics & Text | Print | Product List | Glossary On
Versions: 1 2 3 4 5 6 7 8 9 10 11 12 13 14 15 16 17 18 19 20 21 22 23 24 25 26 27 28 29 30 31 32 33 34 35 36 37 38 39 40 41 42 43 44 45 46 47 48 49 50
000
ASUS43 KIND 042059
RWRIN

WEATHER ROUNDUP FOR INDIANA
NATIONAL WEATHER SERVICE INDIANAPOLIS IN
500 PM EDT FRI SEP 04 2015

NOTE: "FAIR" INDICATES FEW OR NO CLOUDS BELOW 12,000 FEET WITH NO
SIGNIFICANT WEATHER AND/OR OBSTRUCTIONS TO VISIBILITY.

* - STATION DOES NOT REPORT WEATHER SUCH AS PRECIPITATION OR FOG.

+ - STATION NOT QUALITY CONTROLLED BY THE NATIONAL WEATHER SERVICE.
    USE DATA WITH CAUTION...ESPECIALLY DEWPOINT AND RELATIVE
    HUMIDITY OBSERVATIONS.

INZ001>003-010>013-019-020-042200-
NORTHWEST INDIANA

CITY           SKY/WX    TMP DP  RH WIND       PRES   REMARKS
GARY /AIRPORT/ PTSUNNY   77  68  73 NE8       30.02F

$$

LMZ046-743>745-042200-
SOUTHERN LAKE MICHIGAN

STATION/POSITION TIME  TEMP    WIND        PRES    WAVE
                       AIR SEA DIR/SP/G            HT
                 (UTC) (F)     (DEG/KT/KT) (MB)    (FT)
BURNS HARBOR     2000   72      20/  8/  9 1016.9F
MICHIGAN CITY    2000   70      20/  9/  9   N/A
5NW MICH CITY    2000   71 74   40/  8/ 10   N/A     1

$$

INZ004-005-014>016-021>024-042200-
NORTH CENTRAL INDIANA

CITY           SKY/WX    TMP DP  RH WIND       PRES   REMARKS
ELKHART        MOSUNNY   81  72  74 NW7       30.02S
GOSHEN         PTSUNNY   81  72  74 W3        30.02R
SOUTH BEND     NOT AVBL

$$

INZ006>009-017-018-025>027-042200-
NORTHEAST INDIANA

CITY           SKY/WX    TMP DP  RH WIND       PRES   REMARKS
ANGOLA *+      MOSUNNY   81  73  78 CALM      30.02S
FORT WAYNE     NOT AVBL

$$

INZ028-029-035-036-043>045-051>053-042200-
WEST CENTRAL INDIANA

CITY           SKY/WX    TMP DP  RH WIND       PRES   REMARKS
GREENCASTLE +  FAIR      90  63  40 CALM      30.01S
LAFAYETTE      NOT AVBL
TERRE HAUTE    FAIR      92  66  42 SW8       30.00S

$$

INZ030>032-037>040-046>048-054>057-064-065-042200-
CENTRAL INDIANA

CITY           SKY/WX    TMP DP  RH WIND       PRES   REMARKS
GREENWOOD *+   FAIR      91  63  38 SW5       30.01F
INDIANAPOLIS   NOT AVBL
-EAGLE CREEK   FAIR      91  66  43 W8        29.99F
SHELBYVILLE    FAIR      93  68  43 SW12      29.99F HX  97

$$

INZ033-034-041-042-049-050-058-059-042200-
EAST CENTRAL INDIANA

CITY           SKY/WX    TMP DP  RH WIND       PRES   REMARKS
MUNCIE         FAIR      89  66  46 NW12G18   30.01R

$$

INZ060-061-067>069-081>083-085>088-042200-
SOUTHWEST INDIANA

CITY           SKY/WX    TMP DP  RH WIND       PRES   REMARKS
EVANSVILLE     NOT AVBL

$$

INZ062-063-066-070>080-084-089>092-042200-
SOUTH CENTRAL AND SOUTHEAST INDIANA

CITY           SKY/WX    TMP DP  RH WIND       PRES   REMARKS
BLOOMINGTON    FAIR      91  65  41 VRB5      30.02F
SEYMOUR +      FAIR      97  66  36 SW6       29.99F HX 100

$$



USA.gov is the U.S. government's official web portal to all federal, state and local government web resources and services.